ORBCOMM FM111 [+]

Last updated on Thu Jan 21 2016 06:18:32 GMT+0000 (Coordinated Universal Time)

1 40089U 14040D 16019.91427338 .00000372 00000-0 81555-4 0 9994 2 40089 47.0061 248.3250 0036055 134.3093 226.0765 14.76462752 81750
UTC large
Height (km)
Speed (km/s)
/
Latitude / Longitude
Inclination (degrees)
Orbital Period (minutes)
Azimuth
Elevation
Range (km)
Doppler Factor

Next 0 passes for location: London (51.5072 / 0.1276)

Sorry there are no passes over London.